Theta_e
324 324 323 325 327 329 332 332 328 325 331 343 336 328 336 338 331 337 341 340 348 353 347 348 352 352 352 348 346 348 349 350 351 351 352 352 351 352 350 350 349 349 349 348 348 348 348 348 347 347 348 347 347 347 345 344 345 346 345 341 338 337 338
324 324 325 328 324 328 338 333 330 331 331 338 339 333 339 338 330 335 341 340 346 346 345 354 360 356 356 355 350 348 347 349 351 351 352 352 352 352 350 350 349 349 350 348 348 348 347 348 347 347 348 347 348 347 346 343 343 345 345 343 339 336 337
324 327 329 330 327 327 333 332 332 334 332 334 335 333 335 335 331 336 339 340 343 344 350 360 359 356 358 357 355 353 350 348 348 350 351 351 352 351 350 350 348 348 349 349 349 348 347 348 347 347 348 347 348 347 346 344 342 343 343 342 340 338 336
320 330 335 330 329 328 329 331 331 334 340 341 336 333 334 335 336 337 338 338 342 349 358 361 357 358 359 356 360 358 349 346 347 348 350 351 351 351 349 348 348 348 348 348 349 348 348 348 347 348 348 348 348 347 347 346 343 343 343 343 341 338 336
322 328 332 330 333 332 330 333 331 331 335 335 333 335 337 338 340 340 337 337 344 354 358 359 359 360 357 354 358 356 346 345 347 347 347 349 350 349 348 347 347 348 348 348 349 348 348 348 347 348 348 348 348 347 347 346 345 345 345 345 344 340 337
322 325 328 329 334 336 337 338 335 334 335 333 334 335 336 339 340 340 338 336 346 355 354 358 361 358 354 350 349 350 346 345 347 347 348 348 348 349 348 347 347 347 347 347 348 348 348 348 348 348 348 348 348 348 348 347 346 346 346 346 346 343 339
324 324 325 325 327 333 338 336 335 338 339 340 343 338 336 338 337 339 339 336 347 356 352 354 355 349 347 346 345 346 346 346 347 348 350 348 347 348 348 348 348 346 347 347 347 348 347 348 348 347 348 348 348 348 348 347 346 346 346 346 347 346 341
339 330 329 330 330 336 338 334 334 336 336 343 348 346 344 340 337 340 338 335 349 357 347 344 344 342 343 344 346 347 345 347 347 347 350 348 347 348 347 349 350 348 347 346 346 348 347 347 348 347 347 348 348 348 348 347 347 346 346 346 346 346 342
333 327 328 330 332 338 340 339 338 337 341 344 339 342 347 341 336 339 336 337 351 355 346 344 344 343 342 341 344 347 345 347 347 347 349 348 346 348 347 348 350 350 350 348 346 346 346 346 348 347 347 347 347 347 347 347 347 346 345 346 346 346 343
325 329 331 332 332 330 332 337 338 335 340 341 335 337 340 336 334 337 338 342 350 349 344 345 348 348 345 341 343 347 346 346 347 347 347 347 346 346 347 348 349 349 350 349 347 346 345 346 347 347 347 346 346 347 347 346 347 346 346 345 346 346 345
329 340 344 342 336 326 322 328 333 334 337 340 341 339 337 338 337 338 345 347 341 341 344 345 350 355 351 344 342 345 346 345 345 346 345 346 345 345 346 348 349 350 349 348 348 346 346 346 347 347 348 347 347 347 347 347 346 346 346 345 346 346 346
331 344 347 340 331 324 322 324 326 333 337 338 339 337 338 342 336 336 353 352 336 340 354 353 354 360 356 346 339 341 344 343 342 344 344 344 344 344 345 346 347 350 349 349 348 346 346 346 347 348 348 347 347 347 348 348 347 346 346 346 346 346 347
329 334 332 330 327 325 326 324 324 332 338 336 335 339 343 345 337 338 355 352 338 345 362 360 353 349 346 342 339 340 343 341 342 344 343 343 344 345 345 345 346 348 348 349 348 347 347 347 347 347 347 347 347 346 348 348 348 348 346 346 346 346 347
326 329 325 324 324 324 325 326 326 330 337 337 334 339 343 341 338 346 355 351 344 350 359 358 348 339 337 340 341 342 342 341 342 343 342 343 345 347 347 347 347 347 348 349 349 348 347 347 348 347 346 347 347 346 346 348 349 349 347 347 347 347 347
324 330 327 324 325 325 326 331 333 330 334 335 331 336 340 335 337 348 351 349 349 350 348 346 343 341 342 342 340 341 342 341 342 342 342 343 345 346 347 347 348 348 348 349 349 348 347 346 347 347 347 346 346 346 347 346 348 350 349 347 347 347 348
322 327 326 326 334 332 330 336 336 330 332 332 329 335 340 337 341 349 346 344 352 352 344 343 344 342 342 340 339 341 342 342 342 341 342 343 343 344 345 345 346 346 346 348 348 349 348 347 347 346 347 347 346 346 347 346 346 348 349 349 348 348 348
322 327 329 333 338 331 328 335 334 330 334 335 332 338 343 343 346 350 348 347 351 350 346 350 351 344 341 341 341 341 341 342 343 342 343 344 342 341 342 343 344 345 345 345 346 347 348 348 347 346 346 347 346 346 347 347 346 346 348 350 350 348 348
320 330 337 332 327 324 327 335 336 334 338 342 342 343 345 346 346 347 350 353 354 350 349 353 351 345 343 342 341 341 341 342 343 343 343 344 343 342 342 343 344 344 344 345 345 345 346 348 349 347 346 346 347 347 348 348 348 348 349 350 351 350 348
325 335 339 324 321 331 336 334 336 337 340 347 350 346 345 347 346 348 355 359 354 349 345 343 342 342 342 342 342 342 342 342 343 342 342 342 342 342 342 342 342 342 342 343 344 344 344 346 348 348 347 346 346 347 348 348 348 349 349 349 351 351 350
325 329 330 324 328 338 335 331 334 337 339 342 343 343 347 348 346 352 362 359 347 342 341 341 341 342 341 341 341 341 341 342 342 341 341 341 341 341 341 341 341 341 341 342 343 344 344 344 345 347 348 347 346 346 347 347 348 349 348 348 350 352 352
327 326 325 330 332 328 328 335 338 337 338 340 341 347 351 347 340 345 357 356 344 341 342 342 342 341 340 342 342 341 341 342 341 340 341 340 340 341 341 340 340 340 341 341 342 343 343 342 342 343 345 347 347 347 346 347 348 348 348 348 348 349 350
332 331 326 326 324 323 333 344 338 329 330 334 341 348 349 344 339 340 349 354 345 340 341 342 341 340 342 348 346 341 341 342 341 340 341 341 341 340 340 340 340 340 340 340 341 342 342 341 341 341 342 343 345 347 347 348 348 348 348 348 348 348 348
329 335 331 327 326 329 342 349 337 327 328 330 333 337 340 341 340 340 344 346 342 340 341 341 339 340 344 350 346 340 341 342 340 339 340 340 340 339 338 339 338 338 339 340 341 342 342 342 342 341 342 342 342 344 346 347 348 348 348 348 348 349 348
332 336 332 330 330 331 339 347 338 328 328 329 327 330 336 338 338 340 343 340 338 340 341 340 341 342 344 345 343 339 341 341 338 339 339 338 337 337 337 337 337 338 339 340 341 342 342 341 341 341 341 342 342 342 344 346 347 347 347 348 348 349 350
337 335 326 325 331 334 335 339 335 327 326 326 327 333 338 336 337 341 341 337 335 338 338 340 342 341 338 339 340 341 341 339 338 339 337 336 336 336 335 336 336 337 338 339 339 340 341 341 341 342 342 343 343 343 343 344 346 347 347 348 348 349 350
333 339 334 326 330 335 331 330 330 327 326 330 335 337 335 333 337 341 339 336 336 336 337 338 337 336 337 340 341 341 340 338 338 338 336 335 335 335 334 335 335 336 337 337 338 340 341 341 342 342 344 345 345 344 343 343 345 346 347 348 348 349 349
330 336 334 325 328 333 328 327 331 331 330 334 336 333 330 332 337 337 336 336 336 335 336 336 335 337 340 340 340 341 340 339 338 338 336 334 334 334 334 334 335 336 336 337 338 340 341 341 341 342 345 346 345 343 343 343 343 345 347 348 349 349 349
333 332 333 332 333 332 327 329 335 335 332 332 330 329 331 332 333 334 335 335 335 335 335 335 336 339 339 339 340 340 340 339 338 337 336 334 334 334 334 334 335 336 336 337 339 340 340 340 341 343 345 346 345 344 343 343 343 345 347 348 349 349 349
337 336 341 339 331 327 327 330 333 331 329 330 330 330 332 331 331 334 334 333 335 335 334 335 337 338 338 339 339 339 339 339 338 336 335 334 334 334 334 334 335 335 337 338 338 339 339 339 341 342 344 346 346 345 345 345 345 347 348 348 348 348 347
330 330 334 332 326 327 330 329 329 329 330 331 330 330 330 331 332 333 332 333 334 334 333 336 337 337 338 339 339 338 339 338 336 335 334 334 334 334 333 334 334 335 337 337 337 339 339 339 340 342 343 344 344 344 345 345 346 346 346 346 346 346 346
329 329 333 333 330 331 331 330 330 331 330 330 330 329 330 331 331 332 332 332 333 333 334 335 336 337 338 338 338 338 338 337 335 334 333 333 333 333 333 333 334 335 336 337 337 339 339 339 339 340 341 342 342 342 343 344 344 344 344 345 345 345 346
335 331 333 333 332 332 332 331 331 331 330 330 330 329 330 331 331 332 333 333 334 334 334 335 337 338 338 337 338 338 337 336 335 333 332 333 332 332 332 333 333 335 336 336 337 338 338 338 339 340 340 341 341 342 343 343 343 343 343 343 343 343 344
338 333 332 334 334 335 334 331 330 330 330 330 331 330 331 331 332 333 334 334 335 334 335 336 337 338 337 337 338 337 336 335 334 332 332 332 331 331 331 332 333 334 335 336 337 337 338 338 338 339 340 339 339 341 341 341 341 341 340 339 339 340 341
343 340 337 335 336 339 336 333 333 333 332 332 332 331 331 331 332 333 334 334 335 335 335 336 337 337 337 337 337 336 336 335 333 331 331 330 329 330 331 332 333 334 334 334 335 336 336 337 337 337 338 338 338 339 339 339 339 338 338 338 338 338 338
342 338 334 331 333 336 335 333 334 333 332 332 332 330 330 331 332 334 335 335 336 335 335 336 337 338 337 337 337 336 335 333 331 330 329 328 327 328 328 329 330 331 331 332 333 334 335 335 335 335 335 335 335 335 335 336 335 335 335 335 334 334 334
332 331 331 331 330 332 332 333 333 332 330 331 331 330 330 331 333 335 337 337 337 336 336 337 337 337 337 336 336 336 334 332 330 329 327 325 325 326 326 325 325 326 327 327 328 329 329 329 330 332 333 333 333 334 334 334 334 334 334 334 333 333 333
327 329 331 330 330 330 332 332 332 331 331 331 331 330 330 331 333 334 335 336 337 337 337 337 337 337 337 336 336 335 333 330 328 327 326 324 325 327 326 324 323 323 323 323 323 323 323 323 324 325 326 325 326 327 328 328 329 330 330 330 329 329 329
Wind_Speed
1 2 2 3 4 2 0 3 2 2 2 6 4 1 0 4 2 2 1 2 3 2 2 4 6 6 8 10 10 7 5 0 7 15 20 23 27 30 31 33 36 38 38 39 40 40 40 40 38 36 34 32 29 29 30 31 31 31 31 32 33 32 31
2 3 8 8 6 3 3 2 4 2 2 4 4 2 2 4 0 3 2 2 3 1 1 4 6 6 6 7 7 6 6 4 3 10 17 22 25 28 30 32 34 37 39 39 40 41 41 40 39 37 35 32 28 27 28 29 31 31 31 32 32 32 32
2 3 7 6 7 6 4 5 4 3 2 0 1 2 1 1 1 3 3 2 2 3 3 3 3 4 5 6 6 5 6 7 4 2 9 17 22 24 26 30 33 36 38 39 40 41 41 41 39 37 36 33 29 27 26 27 29 29 29 30 31 31 31
2 5 4 2 3 6 5 4 3 2 3 3 1 1 2 2 2 2 3 3 2 4 4 3 4 5 4 4 5 4 4 6 6 4 1 9 17 20 23 26 30 34 37 40 42 42 41 40 40 39 37 35 32 28 27 26 27 28 28 28 30 30 29
3 1 1 5 5 3 3 2 1 1 2 2 2 1 2 3 3 2 1 1 4 6 3 5 5 5 4 5 4 4 4 4 4 5 3 3 10 17 20 21 24 27 28 31 37 40 41 40 39 39 39 37 34 31 29 28 28 29 29 28 29 29 29
2 3 6 5 8 7 5 4 4 3 3 3 3 1 2 1 3 3 3 2 6 5 3 5 5 5 5 5 5 5 4 3 3 4 3 1 6 12 16 16 19 23 23 23 24 28 33 37 40 40 39 39 38 35 32 31 30 30 30 30 29 29 29
2 7 7 1 5 5 5 3 3 4 3 4 5 2 3 1 2 1 3 1 5 5 3 4 4 4 5 5 5 6 7 4 3 3 4 1 5 9 12 15 18 21 24 26 26 26 26 29 34 39 41 40 40 38 35 34 33 32 31 31 29 28 29
4 6 6 4 3 5 5 2 1 4 2 3 5 4 3 3 2 1 2 1 5 5 3 3 3 4 4 5 4 5 6 5 5 4 4 4 2 7 10 15 17 18 21 24 28 32 31 28 29 33 39 42 42 40 38 37 36 33 31 31 30 28 28
4 4 4 5 4 3 2 1 1 2 3 6 4 1 3 2 3 4 4 2 6 5 3 2 2 2 3 5 5 4 4 4 6 7 5 4 1 4 7 12 14 16 20 23 27 32 34 34 32 30 33 37 41 41 40 39 39 36 33 32 31 29 27
3 3 3 3 2 0 0 2 2 2 4 7 4 2 4 1 3 4 4 4 5 5 4 4 4 2 2 4 5 5 5 5 6 8 8 6 2 3 6 10 11 13 17 21 26 31 35 38 39 37 34 32 34 38 40 41 40 39 36 34 33 32 28
7 6 7 5 3 2 1 2 3 3 3 5 6 5 3 3 3 2 4 5 2 6 5 6 7 4 3 4 6 7 6 5 6 8 8 7 4 4 6 8 10 12 16 19 23 28 34 38 40 41 41 37 33 34 38 41 42 41 39 37 35 34 32
7 6 7 5 3 3 4 4 4 6 5 5 6 5 4 5 6 2 7 5 3 6 6 6 7 5 5 6 9 10 7 5 5 7 7 6 5 4 5 5 7 10 13 17 21 26 33 36 36 37 41 42 39 35 35 39 42 43 42 40 38 36 34
6 5 4 3 3 4 4 5 6 6 7 8 7 6 6 8 7 5 7 7 7 7 6 5 7 7 6 6 7 7 4 4 4 4 4 5 6 4 3 4 6 8 11 14 17 24 32 35 33 34 37 41 42 40 36 36 40 44 44 43 41 39 37
4 5 5 3 4 2 2 4 6 6 10 12 9 5 6 7 5 4 5 8 8 7 5 6 6 5 6 4 2 2 2 2 2 2 2 3 4 6 5 5 6 7 8 11 13 19 26 31 32 32 33 37 41 44 41 37 38 42 45 44 42 41 39
4 4 2 3 4 3 1 5 5 2 9 9 4 2 3 4 2 1 4 5 7 6 5 7 6 4 5 2 2 2 2 1 1 2 2 2 3 6 6 5 6 8 7 8 11 14 19 24 28 30 31 33 37 42 43 41 39 40 44 45 43 42 40
3 4 2 2 3 5 2 5 6 1 6 5 3 2 4 5 3 2 4 2 6 5 3 4 5 5 5 3 5 4 2 1 1 2 2 1 3 3 4 4 5 7 7 6 7 10 13 17 21 25 28 29 32 36 40 42 41 40 42 45 44 42 39
4 5 3 4 5 6 3 5 3 3 5 4 3 2 1 3 5 6 3 4 6 3 3 2 3 4 5 5 4 3 3 3 2 2 3 2 2 4 6 6 6 7 8 7 7 8 11 15 17 20 23 24 26 29 34 37 38 38 41 45 46 43 39
4 5 4 4 3 1 4 6 5 6 6 7 7 3 2 2 1 4 4 4 3 3 5 4 2 3 3 4 2 0 2 3 2 2 3 3 4 5 7 9 8 8 9 9 9 8 9 12 16 19 21 22 22 24 27 31 34 37 39 42 45 44 40
3 2 5 4 3 6 6 5 3 3 7 9 9 3 2 2 2 1 1 2 2 3 5 2 1 2 3 3 3 2 0 1 1 1 2 3 4 5 7 9 10 9 10 10 11 10 9 9 13 17 21 23 23 23 25 26 29 33 36 39 42 44 42
2 1 4 2 6 5 1 5 3 4 6 7 7 3 4 2 1 1 2 3 1 2 3 1 2 1 3 5 6 4 2 0 2 3 4 4 5 6 6 8 10 9 10 11 11 11 10 10 11 15 18 23 25 26 27 27 27 28 32 38 42 42 41
3 3 2 2 3 1 3 2 2 3 2 3 5 2 5 5 2 3 3 2 2 1 1 1 1 2 4 6 7 4 2 1 2 4 5 5 6 7 7 9 10 9 11 12 11 10 11 11 11 13 15 20 25 27 28 29 30 31 33 38 42 42 40
3 4 1 1 1 2 4 5 6 4 5 7 7 5 2 6 5 6 6 4 3 3 2 2 2 1 4 5 4 2 0 0 2 4 4 4 6 8 9 10 10 9 10 11 10 9 11 11 11 12 14 18 23 28 30 31 32 34 35 36 38 39 40
2 5 3 3 3 4 6 7 6 2 6 8 6 5 3 6 7 10 9 6 6 7 6 5 3 3 2 4 3 2 1 1 3 3 3 4 7 9 9 9 10 9 8 9 10 11 12 12 12 14 17 19 23 28 31 33 34 35 35 35 35 35 38
3 4 3 2 3 3 5 7 6 3 6 6 6 3 5 7 11 14 11 8 8 8 8 6 5 3 3 4 1 1 1 1 3 3 4 6 7 8 8 9 10 9 8 8 9 11 12 14 15 17 21 24 26 29 32 35 37 38 36 34 34 35 37
4 4 3 2 3 4 6 5 4 2 4 4 3 3 6 9 15 16 12 9 8 8 10 9 5 3 4 3 1 1 2 2 3 3 6 7 7 8 10 11 11 8 8 10 10 10 11 12 15 19 21 22 24 28 32 35 37 38 36 34 34 36 36
3 3 3 1 3 5 7 5 1 2 4 2 4 5 6 12 16 15 12 11 9 8 9 9 8 5 3 3 3 2 2 2 2 3 7 8 8 11 13 12 10 8 9 11 10 9 9 10 13 18 19 17 16 20 28 35 35 34 35 35 35 36 36
3 2 3 3 2 6 10 8 3 2 3 5 9 10 9 12 13 12 13 12 9 8 8 8 8 7 4 3 4 3 2 2 2 5 9 10 10 12 12 10 9 9 10 11 9 8 8 8 11 16 16 12 10 10 19 29 31 30 31 33 34 35 35
3 2 3 3 4 9 15 11 4 4 6 8 13 14 11 11 12 12 14 12 9 8 7 6 7 7 6 5 5 4 4 3 4 7 10 11 10 11 11 9 9 9 9 9 8 9 10 9 9 11 10 8 6 7 15 23 25 26 28 30 32 33 31
4 4 5 5 2 9 15 11 7 9 11 11 11 10 9 10 10 11 11 10 8 6 6 7 7 7 6 6 5 5 6 5 5 5 7 8 9 9 8 8 8 8 7 8 7 8 10 10 8 7 5 6 9 12 17 20 22 24 27 29 31 29 26
2 1 1 1 4 7 11 11 11 13 15 13 10 9 8 8 8 7 7 6 6 5 6 8 8 7 6 6 6 7 6 5 3 3 6 7 7 7 7 7 8 7 5 5 5 6 9 9 7 4 2 7 11 15 17 18 20 23 27 28 28 25 23
2 1 4 2 3 7 10 13 15 15 14 12 9 7 7 7 6 6 5 5 5 6 7 8 8 7 7 7 8 8 6 3 2 2 5 6 5 5 6 6 6 4 4 3 2 4 5 6 4 1 4 8 12 15 17 17 19 21 23 24 24 24 24
2 3 4 1 6 9 12 15 16 14 13 10 8 6 5 6 6 6 6 5 5 6 7 8 8 7 7 8 10 9 6 3 1 2 3 3 3 3 4 4 3 3 3 1 2 4 4 5 5 4 6 9 11 13 15 16 17 19 22 26 28 29 29
1 1 1 4 7 5 7 13 14 13 11 9 9 7 6 6 6 7 6 5 4 5 5 7 8 8 8 9 10 8 6 4 1 1 1 1 2 2 3 3 1 1 2 3 4 6 8 8 8 9 10 11 11 12 13 13 14 17 22 26 29 31 31
1 3 8 10 6 2 8 13 13 11 9 7 7 7 7 7 7 6 6 6 6 6 6 7 8 8 9 10 10 9 6 4 1 1 3 5 6 6 6 7 6 5 5 6 7 9 11 12 13 14 15 16 15 15 16 17 19 21 24 27 30 31 32
4 8 16 18 9 8 15 16 13 11 10 8 8 8 7 8 8 7 7 7 7 7 7 7 8 8 9 11 11 10 8 5 4 5 6 8 10 12 12 12 11 9 9 10 11 14 15 16 19 21 22 22 22 22 22 23 25 26 27 30 33 35 35
3 9 20 19 8 10 18 18 14 13 12 10 9 8 8 9 9 9 9 8 7 7 8 8 8 8 9 11 12 11 9 8 7 9 11 13 15 15 14 14 13 12 11 11 13 16 17 19 21 23 23 24 24 24 24 25 26 27 28 30 32 32 33
7 12 22 19 11 12 18 17 15 15 13 11 10 9 9 10 10 10 9 8 7 7 7 7 9 9 9 11 13 12 11 11 12 13 14 16 16 15 15 15 16 15 15 14 15 15 16 17 20 22 22 22 21 21 21 21 23 25 26 28 29 29 29
Wind_Direction
56 128 131 87 83 137 9 52 102 218 166 118 116 185 58 75 102 268 269 253 298 328 294 325 0 358 353 1 4 19 36 257 204 201 203 205 206 207 208 208 206 206 208 208 209 209 209 209 211 212 214 216 218 221 222 222 223 223 221 219 218 218 217
333 86 87 58 46 111 123 132 191 199 65 77 101 123 6 37 136 273 316 253 282 355 277 315 0 1 341 345 351 6 30 43 194 206 207 210 210 210 212 213 211 209 209 209 210 211 212 212 213 215 216 217 219 221 222 221 221 221 222 222 221 220 219
289 29 73 53 17 43 109 157 153 104 93 24 40 102 141 62 202 283 322 306 245 191 224 287 337 331 316 323 340 359 17 24 29 221 217 214 212 212 214 216 216 213 211 211 211 212 213 214 216 217 217 218 219 221 224 222 221 221 222 223 224 223 222
338 7 49 113 4 25 57 78 57 59 123 158 143 121 156 156 168 248 310 335 272 225 218 198 228 265 279 294 316 324 335 4 32 51 216 217 211 210 213 216 217 216 215 215 214 214 214 214 216 217 218 219 219 221 224 224 222 221 222 224 225 225 225
23 32 208 178 170 130 81 61 24 0 73 121 146 82 93 129 142 178 208 295 270 252 206 174 212 243 246 249 270 280 299 349 24 47 63 214 214 212 216 217 216 217 218 217 214 214 215 215 216 217 219 220 221 221 223 224 223 221 222 224 225 226 225
48 244 252 203 177 164 148 156 180 166 128 124 126 0 310 118 131 166 160 214 267 261 192 179 204 218 234 245 251 272 299 341 359 24 61 192 222 213 217 222 223 223 226 227 222 215 213 214 215 217 220 222 222 222 224 225 225 224 224 225 227 228 227
233 265 283 203 156 141 120 129 155 145 128 118 127 189 236 116 90 137 123 172 271 266 208 190 201 211 238 253 255 283 313 331 326 355 47 61 234 221 214 219 227 228 228 232 232 224 216 215 217 218 220 223 224 224 225 226 227 227 227 228 229 230 229
313 309 324 14 59 79 84 59 118 136 143 129 143 174 165 133 153 141 86 274 268 280 260 213 216 230 250 256 253 283 307 315 306 311 19 45 256 235 220 219 225 224 224 228 229 227 224 223 224 222 222 224 226 227 227 228 229 229 228 228 229 230 229
355 352 345 342 351 51 98 249 224 158 117 99 107 110 83 100 197 153 123 234 255 281 308 288 251 228 251 247 231 241 267 288 301 301 328 6 333 250 238 231 225 217 217 221 223 224 225 226 228 225 224 225 226 228 230 230 231 231 229 228 228 228 229
171 181 218 257 257 204 216 241 225 196 129 119 134 119 77 75 215 150 147 217 262 294 304 295 283 217 208 230 216 220 243 264 288 294 310 335 330 246 244 239 231 220 216 218 219 221 223 226 227 225 224 225 226 230 233 233 234 232 229 229 229 229 229
180 186 210 219 174 147 246 238 227 216 156 123 116 110 129 189 171 178 216 204 258 295 273 262 273 252 210 214 211 218 236 256 276 281 293 320 337 283 261 247 235 224 217 218 222 224 224 225 227 227 225 225 227 231 234 235 235 234 231 230 230 230 230
201 191 206 209 156 185 209 199 223 221 184 136 125 145 192 162 124 245 250 189 182 269 256 239 256 249 219 218 221 227 239 254 267 274 283 316 350 327 298 282 259 240 229 227 227 227 225 223 225 228 227 226 226 229 233 235 235 234 232 231 231 232 231
233 219 232 221 171 212 215 197 224 213 178 174 180 187 186 152 147 230 233 172 186 242 250 237 242 236 229 234 230 231 238 243 253 275 296 332 10 16 345 316 291 270 256 248 237 230 226 223 224 227 227 226 226 226 230 235 235 234 233 233 233 233 231
258 254 258 230 180 215 256 244 246 205 182 194 199 185 174 167 182 224 190 179 211 232 227 242 259 253 247 256 245 225 227 237 278 336 347 354 31 45 29 357 330 305 277 267 260 244 232 227 227 228 228 227 226 226 228 232 235 234 233 233 234 234 232
298 285 254 190 154 138 231 290 300 198 183 199 201 148 158 170 235 269 136 176 243 250 217 235 264 262 247 260 75 111 173 206 342 32 46 22 34 41 27 6 346 335 316 293 281 266 248 237 233 233 232 227 225 225 227 230 232 234 234 233 234 233 232
273 292 343 356 58 78 44 325 334 85 162 185 198 190 182 174 166 113 95 165 252 254 213 230 268 273 274 328 48 83 129 150 80 88 96 21 352 356 351 342 332 325 320 311 292 271 257 245 238 237 235 233 230 229 229 230 230 231 234 234 234 233 232
251 281 340 355 24 41 3 307 286 166 152 148 134 114 165 169 149 141 156 224 236 213 158 193 273 284 294 330 20 93 140 138 125 138 143 157 276 304 313 312 310 307 303 298 285 265 250 241 236 234 233 235 238 234 231 231 230 229 232 234 234 232 229
231 273 344 25 35 7 254 248 224 185 163 140 129 129 268 273 195 170 186 219 221 160 148 170 254 275 282 315 338 128 157 156 159 160 163 194 242 280 291 291 291 291 291 289 281 274 258 238 230 226 226 230 234 232 229 228 227 227 229 232 234 232 228
193 299 32 53 250 243 247 279 286 158 145 132 120 113 280 298 323 286 172 212 214 143 129 122 336 285 258 279 293 288 268 158 158 335 289 261 273 287 290 296 299 292 285 283 278 275 271 250 234 227 224 224 227 228 228 226 226 229 230 231 234 233 229
154 86 84 141 245 252 353 1 4 97 107 108 99 51 310 279 213 201 223 266 279 110 106 57 4 308 282 293 288 273 260 31 356 337 327 322 325 325 313 309 310 302 290 288 281 270 265 257 245 236 230 227 226 226 226 226 226 230 231 230 230 231 231
137 130 164 239 284 325 64 2 258 169 144 151 133 126 279 273 244 188 203 254 265 153 112 30 327 318 323 316 303 281 248 333 359 346 345 348 337 330 321 307 301 294 287 288 285 268 258 254 248 242 238 233 230 227 225 224 224 225 227 228 228 229 232
110 102 113 339 335 230 228 247 254 245 217 194 149 115 288 280 259 210 190 189 206 200 191 211 215 3 352 320 320 358 125 285 13 3 347 334 318 315 314 308 300 289 282 286 285 268 258 256 251 246 243 239 236 232 228 225 224 224 225 227 229 230 231
112 111 128 168 189 231 239 239 258 253 176 168 121 66 314 263 223 202 193 189 203 209 213 209 174 79 2 282 305 25 117 281 3 0 332 310 310 314 314 311 310 309 301 290 279 270 267 265 260 254 250 246 241 237 233 228 227 226 225 225 227 229 229
156 133 134 197 210 237 235 233 251 222 161 139 89 39 280 234 199 196 197 199 210 214 211 198 163 140 236 255 315 43 191 320 356 345 319 315 319 324 319 313 320 328 321 299 283 278 278 278 273 265 257 251 245 240 236 231 228 228 226 225 225 225 225
153 138 136 230 251 244 224 233 266 203 140 107 109 214 232 198 186 193 199 203 213 211 204 203 203 223 251 264 291 198 228 308 337 332 324 326 333 332 321 317 324 331 321 309 299 288 284 284 280 277 276 272 260 247 238 233 229 227 225 225 225 224 222
150 136 125 175 275 244 203 198 224 137 134 163 206 198 181 174 180 192 202 208 214 211 214 226 239 257 278 263 239 215 241 292 309 317 323 331 334 326 323 325 329 328 318 312 306 293 291 296 296 297 300 300 283 256 237 230 227 225 223 222 223 222 220
133 65 86 117 257 228 187 166 146 151 171 191 172 150 147 172 187 197 205 212 217 220 233 246 245 249 252 232 224 216 227 268 283 303 321 334 336 329 332 338 337 331 321 314 310 306 310 316 313 309 307 303 296 261 226 219 219 221 223 220 221 223 222
128 117 175 200 228 196 176 167 175 191 179 165 154 147 154 180 194 205 212 218 223 229 246 256 243 242 235 217 217 211 206 244 288 308 326 340 340 335 338 342 338 335 326 319 318 320 328 338 327 309 296 279 267 226 212 214 215 217 221 221 220 221 219
161 170 214 233 190 165 174 183 191 176 165 157 156 162 174 186 199 212 215 220 227 235 252 252 241 242 233 214 210 206 211 246 291 319 337 342 338 334 336 340 342 340 328 321 322 325 335 346 339 311 266 212 196 189 195 206 210 211 213 214 213 210 204
190 157 281 229 138 156 180 188 178 167 164 164 168 181 199 205 210 212 209 219 236 243 251 250 244 243 235 215 203 206 220 254 296 336 345 341 338 338 341 349 354 345 321 314 324 332 341 350 346 314 216 165 158 162 173 188 197 199 199 198 196 190 179
137 191 311 310 148 165 175 173 170 169 171 175 176 184 206 211 206 208 215 225 237 242 250 252 246 240 229 211 202 206 216 243 295 351 353 346 344 347 356 10 5 331 297 302 355 6 1 12 19 245 174 144 138 145 153 160 166 173 179 180 177 173 169
126 228 285 353 125 150 163 167 173 176 173 172 169 171 194 203 199 207 217 219 230 242 248 249 244 235 221 209 205 204 198 194 221 356 356 350 0 12 23 29 3 289 267 264 82 76 71 76 89 123 145 141 145 151 152 153 156 158 161 161 158 157 160
79 259 246 110 101 112 160 169 176 182 175 165 162 171 197 212 206 209 214 216 227 239 247 252 246 228 211 208 209 203 186 176 187 355 38 114 96 78 80 83 91 211 171 138 122 107 103 107 111 113 117 124 138 147 148 152 153 145 141 140 138 138 140
190 219 186 166 141 153 190 182 179 181 178 176 183 195 215 226 225 229 231 228 227 230 242 254 247 225 208 207 208 199 178 167 175 166 155 142 126 122 120 115 114 117 116 116 115 111 113 119 118 113 111 113 118 122 126 129 128 126 127 127 125 125 126
231 221 190 178 164 172 183 183 183 186 191 201 208 211 222 229 232 237 237 233 234 237 240 241 236 226 216 208 203 189 169 160 158 151 150 144 133 128 124 118 115 114 111 109 109 112 117 120 117 115 115 116 117 119 122 124 124 123 124 124 123 123 123
233 204 188 184 183 186 185 186 189 194 201 211 213 216 224 228 231 235 238 239 243 244 242 231 219 221 220 209 196 182 169 164 156 148 149 146 137 129 124 121 121 120 118 114 113 113 115 115 115 116 118 119 121 123 124 123 123 124 123 122 121 121 121
249 202 190 194 207 198 187 186 189 194 202 211 218 226 228 227 234 242 246 249 245 239 242 232 213 211 213 201 188 179 171 161 154 153 153 148 139 129 126 126 125 122 119 115 114 115 117 116 115 115 115 114 114 117 118 119 121 124 124 123 122 121 122